Weather Roundup
Issued by NWS Chicago, IL

Home | Current Version | Previous Version | Graphics & Text | Print | Product List | Glossary Off
Versions: 1 2 3 4 5 6 7 8 9 10 11 12 13 14 15 16 17 18 19 20 21 22 23 24 25 26 27 28 29 30 31 32 33 34 35 36 37 38 39 40 41 42 43 44 45 46 47 48 49 50

000
NZUS59 KLOT 272310
HRRLOT

CHICAGO AREA WEATHER ROUNDUP
NATIONAL WEATHER SERVICE CHICAGO/ROMEOVILLE IL
500 PM CST FRI FEB 27 2015

NOTE: "FAIR" INDICATES FEW OR NO CLOUDS BELOW 12,000 FEET WITH NO
SIGNIFICANT WEATHER AND/OR OBSTRUCTIONS TO VISIBILITY.

* THESE STATIONS ARE NOT UNDER NWS QUALITY CONTROL. THEY ALSO MAY NOT
  REPORT WEATHER SUCH AS PRECIPITATION OR FOG.

ILZ005-006-012>014-019>023-280000-
NORTHEAST ILLINOIS

CITY           SKY/WX    TMP DP  RH WIND       PRES   REMARKS
OHARE          CLEAR     11  -5  48 W8        30.59R WCI  -1
MIDWAY         CLEAR     15  -2  46 SW10      30.61R WCI   2
AURORA         CLEAR      7  -4  60 W8        30.62R WCI  -6
LANSING*       CLEAR     13  -2  51 SW8       30.62R WCI   1
JOLIET*        CLEAR     10  -4  52 W6        30.64R WCI   1
WAUKEGAN       CLEAR     13  -3  49 SW7       30.56S WCI   3
DUPAGE AIRPORT CLEAR     10  -5  50 W7        30.59R WCI  -1
WHEELING       CLEAR     13  -6  42 SW7       30.60S WCI   3
KANKAKEE*      CLEAR     10  -1  63 SW6       30.64S WCI   0
MORRIS*        CLEAR      8  -2  65 W7        30.63S WCI  -4
LEWIS AIRPORT* CLEAR     10  -4  54 W8        30.62R WCI  -3
NORTHERLY IS     N/A     17  -3  41 W3          N/A
$$

WIZ051-052-058>065-066-070>072-280000-
SOUTHEAST WISCONSIN

CITY           SKY/WX    TMP DP  RH WIND       PRES   REMARKS
MILWAUKEE      CLEAR     15  -5  40 SW14      30.55S WCI   0
KENOSHA*       CLEAR     11  -5  48 W10       30.56S WCI  -3
RACINE*        CLEAR     13  -5  44 SW7       30.58S WCI   3
BURLINGTON     CLEAR     10  -5  49 SW8       30.56S WCI  -1
WAUKESHA       CLEAR     12  -6  44 SW10      30.54S WCI  -1
WEST BEND      CLEAR     16  -4  41 W8        30.51F WCI   5
$$

INZ001>003-010>013-019-020-280000-
NORTHWEST INDIANA

CITY           SKY/WX    TMP DP  RH WIND       PRES   REMARKS
GARY*          CLEAR     18  -9  29 SW10      30.62R WCI   6
MICHIGAN CITY* NOT AVBL
RENSSELAER*    NOT AVBL
VALPARAISO     CLEAR     12  -1  56 SW10      30.60R WCI  -1
$$

LMZ740>746-280000-
SOUTHERN LAKE MICHIGAN

STATION/POSITION TIME  SKY/WX   TEMP WIND        PRES    VSBY
                                AIR  DIR/SP/G
                 (UTC)          (F)  (DEG/KT/KT) (MB)    (MI)
HARRISON CRIB    2300            16  270/  8/ 11   N/A
BURNHAM HARBOR   2300            17  260/  5/ 10   N/A
CALUMET HARBOR   2300            16  230/  4/ 10 1034.9R
BURNS HARBOR     NOT AVBL
MICHIGAN CITY    2300            14  200/  4/  4   N/A
$$

ABBREVIATIONS USED IN REMARKS
   TC - TEMPERATURE IN CELSIUS
  WCI - WIND CHILL INDEX
   HX - HEAT INDEX
  VSB - VISIBILITY
$$



USA.gov is the U.S. government's official web portal to all federal, state and local government web resources and services.